Wind_Speed
28 29 29 28 29 30 31 32 32 33 33 35 37 38 39 40 39 37 35 31 30 29 29 30 31 32 35 35 37 40 41 42 42 43 45 46 45 45 42 41 40 38 35
31 32 31 31 32 33 34 35 35 35 37 39 41 42 41 40 38 36 33 31 30 32 34 35 36 38 40 41 41 42 44 46 48 48 48 47 49 50 50 47 43 41 38
34 33 33 33 34 36 37 38 38 39 41 43 43 42 40 38 36 34 33 34 35 37 39 41 42 42 42 44 46 48 50 52 53 53 54 54 52 51 51 52 52 46 44
35 35 35 36 37 38 40 42 42 44 44 44 43 41 39 36 35 36 38 39 41 42 43 45 45 45 48 50 52 54 56 57 58 59 60 61 62 60 54 52 53 55 52
36 36 36 38 40 41 43 44 46 46 46 44 41 38 37 38 39 41 43 43 45 46 47 48 50 52 55 56 58 61 63 64 65 66 67 67 66 66 65 61 55 54 57
36 37 39 41 42 44 45 46 45 43 42 41 40 40 41 43 45 46 47 49 51 51 52 53 56 58 60 63 65 67 69 70 71 72 72 71 69 67 66 66 67 62 60
37 39 41 41 41 41 42 42 42 42 40 41 43 45 47 49 51 52 54 55 55 56 58 60 63 65 67 70 72 73 74 76 77 77 76 75 74 75 74 72 70 69 67
38 39 39 40 39 40 41 41 42 42 43 45 48 50 52 55 57 57 58 58 58 61 63 66 69 72 75 76 77 78 78 79 78 79 79 79 81 82 83 84 83 81 79
39 40 41 41 42 42 43 44 44 46 48 51 53 56 58 60 60 60 61 62 64 67 69 71 74 77 79 80 82 83 84 85 85 86 86 88 89 91 92 93 94 94 89
41 42 43 44 44 45 46 47 49 51 53 56 59 61 61 62 62 64 65 67 69 72 74 76 77 79 80 81 82 85 87 88 89 92 94 96 98 100 101 103 103 103 102
41 43 45 46 46 47 49 50 52 54 56 59 60 61 62 64 65 68 70 72 74 76 77 78 80 81 82 85 87 90 92 95 97 101 103 105 107 107 105 101 100 100 100
43 44 45 46 46 47 49 51 53 55 57 59 61 64 66 68 70 72 74 75 76 79 80 81 83 85 87 90 94 97 100 104 106 109 110 110 107 105 100 98 97 97 94
45 45 47 48 48 49 50 52 55 58 60 62 64 67 69 71 73 75 75 77 79 79 82 85 87 90 95 98 102 106 108 110 109 108 105 99 93 88 83 82 79 78 79
48 48 49 50 51 52 55 57 59 61 62 64 67 70 73 74 74 75 77 78 80 82 85 89 93 97 102 106 109 110 109 106 101 94 84 76 70 65 63 62 62 63 65
51 51 52 53 55 56 57 59 62 63 65 68 71 73 73 73 74 76 78 80 84 88 92 96 100 103 106 108 106 102 96 88 79 73 69 66 64 63 62 62 60 62 64
53 53 54 56 57 58 61 63 65 67 69 70 71 72 73 73 75 78 81 85 89 94 97 102 104 104 102 96 87 77 73 71 70 69 69 68 67 64 62 62 62 64 62
56 57 59 61 62 63 65 66 67 68 69 69 71 71 72 75 78 82 87 91 95 99 102 102 101 97 87 72 67 67 70 72 73 72 68 64 59 58 55 55 58 57 56
59 61 63 65 65 66 67 67 67 67 68 68 68 71 75 78 82 87 92 96 99 100 101 95 87 75 63 64 66 69 67 60 55 54 52 51 52 51 49 52 52 52 53
61 62 64 65 67 67 66 65 65 64 65 67 70 74 78 83 87 91 95 96 98 95 88 76 66 63 62 65 60 55 59 59 60 60 56 52 48 46 50 54 51 48 47
62 63 63 63 62 62 61 60 61 63 66 69 73 78 84 88 91 92 94 93 88 79 65 60 63 64 55 48 56 59 59 58 60 58 55 51 50 44 42 45 45 45 41
60 60 60 59 58 58 59 60 62 65 69 73 78 83 88 90 91 91 87 79 67 59 60 61 56 46 52 53 53 49 54 60 60 57 51 48 46 43 41 43 44 43 41
58 57 55 55 57 58 60 62 66 69 73 77 83 86 87 88 86 80 70 59 57 58 58 48 46 50 52 46 44 49 54 57 59 53 47 43 42 41 39 40 40 40 39
51 51 52 54 57 59 63 66 69 73 77 82 84 84 86 82 73 62 54 54 56 54 42 48 49 47 43 41 45 48 50 54 59 49 45 42 39 37 36 36 35 36 36
49 50 53 56 59 63 67 70 73 78 81 82 83 82 76 65 54 51 53 54 48 41 44 48 43 37 38 41 47 49 47 50 56 48 44 41 37 34 32 33 32 34 34
50 54 57 59 63 66 69 74 77 79 80 82 78 69 58 48 47 51 52 41 38 43 45 47 44 37 37 37 41 46 46 49 56 48 39 36 34 32 31 31 30 31 31
54 58 61 63 65 69 74 77 79 80 79 72 61 51 45 45 48 49 34 35 39 43 46 47 45 40 40 36 38 42 40 43 50 45 38 32 30 28 28 28 27 27 29
Wind_Direction
273 279 282 284 284 285 285 284 284 285 288 289 291 292 293 293 292 289 288 286 285 285 285 285 284 285 289 290 290 292 294 295 295 296 296 294 290 287 287 286 286 285 285
273 279 284 285 286 286 285 284 283 285 287 288 290 291 292 291 288 285 285 284 282 282 282 284 286 290 291 293 294 296 297 297 295 294 291 289 288 287 285 282 279 277 275
275 280 282 285 285 285 284 283 285 286 287 288 289 290 289 286 282 282 280 280 280 283 285 288 291 292 292 293 295 296 295 293 293 294 293 290 287 283 282 282 280 273 269
277 281 284 285 285 284 284 285 286 287 287 288 288 286 283 279 278 279 280 282 284 286 287 288 289 289 291 291 291 291 292 293 294 295 294 292 289 285 279 276 274 273 270
278 281 283 284 283 284 285 286 286 286 286 284 281 277 274 274 276 279 282 284 285 286 285 285 287 289 289 289 291 293 294 294 293 292 291 290 288 286 283 279 274 270 269
279 281 281 282 283 284 285 285 285 283 281 277 274 273 274 278 281 283 283 285 285 284 285 287 288 288 289 290 291 292 292 292 292 291 290 288 286 283 281 278 276 274 270
278 279 282 285 284 284 283 283 282 280 276 275 274 277 280 283 285 286 287 289 290 290 290 290 290 290 291 291 291 291 291 291 290 289 288 287 286 284 281 278 274 271 268
280 282 282 281 282 282 282 281 278 276 275 275 277 280 283 285 287 288 288 288 288 289 289 289 291 292 292 291 290 290 290 289 289 288 288 286 285 283 282 280 277 273 271
281 280 280 281 281 281 279 278 276 276 276 278 281 284 286 287 287 288 288 289 290 290 290 292 292 292 292 293 294 293 293 291 290 289 287 285 283 281 280 278 276 273 269
279 280 281 282 281 280 278 278 279 280 282 283 284 285 287 288 289 289 290 291 291 292 292 292 292 292 292 290 289 288 288 287 287 286 285 284 283 282 281 279 277 275 273
279 282 283 283 282 282 283 282 282 283 284 285 286 288 288 289 289 291 292 292 292 292 292 292 291 290 289 289 289 289 289 289 289 289 288 286 285 285 284 282 280 278 276
283 284 285 285 287 287 287 286 287 287 286 286 287 288 290 291 291 291 291 291 291 292 291 290 289 290 291 292 293 294 293 292 291 290 289 288 286 285 283 282 279 277 273
284 286 287 287 286 285 285 286 286 286 287 289 290 290 290 290 290 291 291 291 291 290 291 291 292 294 296 297 296 295 294 293 292 291 291 290 289 286 283 281 279 277 274
284 285 285 285 285 286 287 288 290 290 290 289 289 289 290 290 290 290 290 291 293 294 294 296 298 298 298 298 297 296 295 294 293 293 292 291 289 288 286 284 283 280 279
284 285 285 287 288 289 290 290 290 289 290 291 290 290 290 290 291 292 295 296 297 298 299 299 300 300 299 299 299 297 296 296 295 294 293 292 291 288 287 285 283 282 283
283 284 286 287 288 289 290 290 291 292 291 290 290 291 292 294 296 296 296 298 299 300 301 301 301 302 302 300 300 299 299 299 298 296 293 292 290 287 286 284 282 281 280
284 286 288 289 289 290 291 292 291 291 291 292 292 294 295 296 298 299 299 300 301 302 303 304 304 303 302 301 301 300 299 297 296 295 295 293 290 288 287 281 280 281 282
286 287 288 289 290 290 290 291 290 290 291 293 295 296 298 300 300 301 302 304 305 305 306 305 303 302 303 303 301 299 299 300 302 303 303 301 295 290 285 281 280 281 281
285 286 287 289 289 289 289 289 290 293 294 297 299 300 300 301 302 304 305 305 305 306 304 305 305 306 307 304 303 302 302 302 300 298 298 298 296 292 287 283 282 281 285
287 288 288 288 287 287 288 291 292 295 298 299 300 302 303 305 306 306 307 307 306 306 307 308 308 308 308 306 306 305 304 304 302 299 295 291 290 290 290 287 287 287 289
286 286 286 286 286 287 290 293 296 298 299 302 304 306 306 306 308 309 308 307 307 308 309 311 310 307 308 307 306 308 313 318 311 298 291 287 286 288 288 287 286 287 286
285 285 285 286 288 290 293 296 298 300 302 305 306 307 307 309 309 308 307 307 310 311 311 310 309 309 309 309 308 317 321 321 319 304 293 287 283 282 282 286 285 285 282
283 285 286 288 291 294 297 299 301 302 305 306 307 308 310 309 307 306 307 309 310 311 310 313 313 313 311 309 311 318 321 323 324 310 294 289 285 282 280 284 282 281 279
284 285 288 291 295 298 300 302 303 305 306 307 309 309 309 307 305 308 310 312 310 309 313 317 317 314 314 310 307 314 320 323 326 317 298 288 284 282 281 280 279 276 279
286 289 292 295 298 300 302 304 306 307 308 310 309 308 307 306 308 311 312 309 310 312 316 321 322 318 317 317 319 317 322 326 331 325 311 288 282 279 279 278 282 275 278
290 293 296 299 301 303 305 307 308 309 310 308 307 306 305 308 311 312 306 309 314 316 317 320 321 321 324 320 324 326 327 329 338 336 325 305 285 275 275 277 282 283 274
Height
5829 5829 5828 5827 5827 5826 5825 5824 5823 5821 5820 5818 5816 5814 5813 5811 5809 5806 5804 5803 5802 5800 5799 5798 5796 5795 5793 5792 5790 5787 5785 5783 5781 5779 5776 5773 5771 5769 5768 5764 5762 5761 5759
5821 5821 5821 5821 5820 5819 5818 5816 5815 5814 5812 5810 5808 5806 5804 5803 5801 5799 5797 5795 5793 5792 5790 5789 5787 5786 5784 5782 5780 5778 5775 5772 5770 5768 5766 5763 5759 5757 5755 5754 5752 5750 5748
5814 5814 5813 5813 5812 5811 5810 5808 5807 5805 5803 5801 5799 5797 5795 5794 5792 5790 5788 5786 5785 5783 5781 5780 5777 5775 5773 5771 5768 5765 5763 5760 5756 5754 5751 5750 5748 5745 5741 5741 5738 5739 5738
5806 5806 5806 5805 5804 5803 5801 5800 5798 5796 5794 5792 5790 5788 5786 5784 5783 5781 5779 5777 5775 5773 5771 5768 5766 5763 5761 5758 5755 5752 5748 5745 5742 5738 5735 5733 5731 5730 5731 5725 5724 5723 5722
5798 5798 5798 5797 5795 5794 5792 5791 5789 5787 5784 5782 5780 5778 5776 5774 5772 5771 5769 5766 5764 5762 5759 5756 5753 5750 5747 5744 5740 5736 5733 5729 5725 5722 5719 5716 5712 5710 5712 5713 5711 5709 5708
5790 5790 5788 5787 5786 5785 5783 5780 5777 5775 5773 5771 5769 5768 5766 5764 5763 5760 5758 5755 5752 5749 5746 5743 5739 5735 5731 5728 5724 5720 5715 5711 5707 5703 5700 5697 5694 5692 5690 5692 5692 5691 5689
5781 5780 5779 5778 5776 5774 5772 5769 5767 5764 5763 5761 5760 5758 5756 5754 5751 5749 5746 5742 5739 5735 5732 5728 5723 5718 5713 5708 5704 5699 5694 5689 5685 5681 5677 5673 5670 5668 5666 5666 5669 5670 5671
5771 5771 5769 5768 5766 5764 5761 5759 5757 5755 5753 5751 5749 5747 5744 5741 5738 5735 5731 5728 5724 5720 5715 5710 5705 5700 5695 5689 5683 5679 5674 5668 5663 5660 5655 5652 5647 5643 5641 5640 5639 5643 5646
5762 5761 5759 5758 5756 5754 5751 5749 5747 5745 5743 5740 5737 5734 5731 5728 5724 5720 5716 5712 5707 5703 5697 5691 5686 5679 5672 5665 5659 5654 5648 5642 5638 5634 5630 5625 5621 5615 5611 5607 5605 5605 5615
5752 5751 5749 5747 5745 5743 5741 5739 5737 5734 5731 5728 5725 5721 5718 5714 5710 5706 5700 5695 5689 5684 5678 5672 5666 5659 5652 5645 5638 5633 5627 5622 5617 5610 5604 5598 5590 5584 5579 5574 5570 5566 5569
5742 5740 5739 5737 5735 5733 5731 5729 5726 5723 5719 5716 5712 5708 5704 5700 5695 5689 5683 5678 5673 5665 5659 5652 5645 5638 5630 5622 5614 5608 5602 5595 5588 5580 5573 5568 5556 5549 5542 5536 5532 5528 5526
5731 5729 5728 5726 5723 5721 5719 5717 5714 5711 5707 5703 5699 5694 5689 5683 5677 5671 5665 5658 5652 5645 5638 5630 5622 5614 5606 5598 5589 5581 5572 5562 5555 5545 5534 5529 5520 5513 5507 5499 5496 5490 5488
5720 5718 5716 5714 5711 5708 5705 5703 5700 5696 5692 5687 5682 5677 5671 5665 5660 5653 5646 5638 5632 5624 5615 5607 5599 5591 5581 5571 5560 5549 5541 5530 5520 5511 5500 5493 5484 5479 5473 5466 5462 5459 5456
5707 5705 5703 5701 5698 5695 5692 5688 5684 5680 5676 5671 5666 5660 5654 5647 5641 5634 5626 5619 5610 5602 5594 5586 5577 5566 5553 5540 5529 5516 5505 5496 5487 5478 5471 5463 5456 5451 5448 5444 5441 5436 5432
5694 5693 5691 5688 5684 5681 5678 5674 5669 5665 5661 5656 5649 5642 5636 5630 5622 5614 5606 5598 5590 5580 5571 5560 5550 5539 5524 5508 5493 5481 5472 5465 5458 5453 5447 5442 5436 5431 5427 5422 5421 5415 5410
5680 5678 5676 5674 5671 5667 5663 5659 5655 5649 5643 5637 5631 5624 5618 5611 5603 5595 5587 5578 5568 5558 5547 5534 5520 5510 5494 5478 5465 5453 5445 5440 5435 5432 5427 5421 5415 5412 5407 5401 5396 5393 5391
5666 5665 5662 5659 5655 5651 5647 5642 5637 5631 5625 5620 5614 5607 5599 5592 5584 5574 5565 5555 5546 5533 5520 5507 5491 5480 5468 5455 5446 5437 5427 5419 5414 5407 5403 5398 5394 5389 5386 5381 5374 5373 5372
5653 5651 5647 5643 5639 5635 5631 5626 5620 5615 5610 5603 5597 5589 5581 5572 5563 5553 5542 5531 5519 5507 5495 5482 5467 5455 5449 5438 5428 5418 5409 5401 5395 5389 5383 5377 5373 5369 5365 5360 5359 5357 5355
5639 5636 5633 5628 5623 5619 5614 5610 5605 5599 5593 5587 5579 5570 5561 5552 5542 5531 5519 5506 5495 5483 5469 5457 5446 5436 5432 5419 5408 5399 5393 5387 5381 5374 5367 5360 5355 5352 5348 5340 5342 5342 5341
5624 5620 5616 5611 5606 5602 5599 5596 5591 5585 5578 5570 5562 5552 5540 5530 5520 5509 5496 5483 5469 5459 5448 5442 5429 5420 5412 5404 5395 5384 5375 5371 5364 5357 5350 5343 5338 5337 5333 5327 5325 5324 5326
5608 5604 5600 5595 5591 5588 5586 5581 5575 5568 5561 5552 5543 5532 5520 5508 5496 5486 5471 5460 5450 5442 5433 5426 5418 5407 5398 5392 5381 5371 5361 5351 5344 5336 5332 5329 5324 5321 5319 5314 5311 5309 5308
5592 5588 5585 5581 5577 5574 5571 5565 5559 5552 5544 5535 5523 5512 5500 5487 5475 5463 5453 5442 5434 5428 5419 5412 5406 5395 5387 5377 5370 5361 5350 5338 5326 5318 5314 5312 5310 5308 5305 5301 5298 5295 5293
5577 5574 5572 5568 5563 5559 5554 5549 5541 5533 5525 5515 5503 5492 5481 5467 5455 5446 5438 5431 5422 5413 5407 5400 5392 5385 5377 5368 5360 5351 5340 5329 5315 5304 5297 5295 5296 5295 5293 5289 5286 5284 5281
5564 5561 5558 5555 5550 5544 5536 5529 5523 5515 5506 5496 5484 5472 5462 5452 5441 5433 5425 5417 5410 5403 5396 5389 5382 5376 5368 5360 5352 5343 5333 5321 5307 5293 5284 5281 5281 5281 5280 5277 5275 5272 5270
5551 5548 5544 5540 5533 5527 5519 5511 5504 5495 5485 5475 5464 5453 5444 5437 5430 5423 5414 5406 5400 5393 5386 5378 5371 5365 5359 5351 5342 5332 5323 5311 5297 5282 5274 5270 5268 5268 5268 5266 5265 5262 5260
5537 5532 5528 5523 5516 5509 5501 5492 5483 5473 5464 5455 5445 5438 5432 5425 5418 5412 5405 5398 5392 5384 5377 5370 5361 5355 5348 5341 5334 5325 5315 5304 5291 5277 5266 5260 5258 5257 5256 5256 5255 5253 5252